SB KEPS @ AMSAT $ORB13354.N 2Line Orbital Elements 13354.AMSAT
HR AMSAT ORBITAL ELEMENTS FOR AMATEUR SATELLITES IN NASA FORMAT FROM WA5QGD FORT WORTH,TX December 20, 2013 BID: ORB13354.N
DECODE 2-LINE ELSETS WITH THE FOLLOWING KEY: 1 AAAAAU 00 0 0 BBBBB.BBBBBBBB .CCCCCCCC 00000-0 00000-0 0 DDDZ 2 AAAAA EEE.EEEE FFF.FFFF GGGGGGG HHH.HHHH III.IIII JJ.JJJJJJJJKKKKKZ KEY: A-CATALOGNUM B-EPOCHTIME C-DECAY D-ELSETNUM E-INCLINATION F-RAAN G-ECCENTRICITY H-ARGPERIGEE I-MNANOM J-MNMOTION K-ORBITNUM Z-CHECKSUM
TO ALL RADIO AMATEURS BT
AO-07 1 07530U 74089B 13354.21515174 -.00000021 00000-0 14223-3 0 8511 2 07530 101.4523 337.0948 0011636 285.1708 143.3189 12.53600565789090 FO-29 1 24278U 96046B 13354.50447887 -.00000037 00000-0 -29770-5 0 2688 2 24278 098.5300 027.9105 0351037 041.3522 091.5242 13.53012067856505 SO-33 1 25509U 98061B 13354.70786536 .00000410 00000-0 69680-4 0 6527 2 25509 031.4325 091.4340 0350442 351.0253 166.8250 14.29269116791599 RS-22 1 27939U 03042A 13354.76337143 .00001276 00000-0 24766-3 0 534 2 27939 097.7959 172.9314 0012877 319.0808 040.9430 14.64757169546600 VO-52 1 28650U 05017B 13354.13648694 .00002381 00000-0 28683-3 0 6105 2 28650 097.5621 003.1806 0026262 031.6390 040.8961 14.84508553466660 HO-68 1 36122U 09072B 13354.72271463 -.00000044 00000-0 00000 0 0 1631 2 36122 100.2805 046.8393 0007454 288.5470 071.4833 13.16309916192950 AO-73 1 39445U 13066AF 13354.33655111 .00003728 00000-0 51466-3 0 156 2 39445 097.7968 066.0276 0064778 103.0080 257.8350 14.77266533 2628 UO-11 1 14781U 84021B 13354.17356543 .00000930 00000-0 12613-3 0 3673 2 14781 097.8788 052.5943 0009587 051.8751 308.3324 14.81192911601461 AO-16 1 20439U 90005D 13354.05627551 .00000236 00000-0 10330-3 0 9103 2 20439 098.4914 289.9335 0010172 334.3577 084.9743 14.32253681248843 LO-19 1 20442U 90005G 13354.54510736 .00000230 00000-0 10066-3 0 8498 2 20442 098.4615 291.6126 0010929 321.2582 038.7818 14.32460928249108 AO-27 1 22825U 93061C 13354.46183703 .00000186 00000-0 89654-4 0 5533 2 22825 098.6418 296.7128 0009575 102.1500 030.8500 14.29631187 55241 IO-26 1 22826U 93061D 13354.82347591 .00000232 00000-0 10700-3 0 3110 2 22826 098.6360 297.3218 0010103 094.8310 292.6389 14.29922307 55431 GO-32 1 25397U 98043D 13354.49032344 .00000119 00000-0 70883-4 0 2337 2 25397 098.4437 314.4011 0002435 108.2177 030.2534 14.23386782802446 NO-44 1 26931U 01043C 13354.49423362 .00000278 00000-0 13946-3 0 4930 2 26931 067.0514 139.2086 0006193 263.6703 096.3693 14.30008547638051 SO-50 1 27607U 02058C 13354.19263433 .00000886 00000-0 15647-3 0 2513 2 27607 064.5575 057.7655 0032111 083.5595 311.4375 14.73283502591110 CO-55 1 27844U 03031E 13354.49808028 .00000351 00000-0 18059-3 0 8126 2 27844 098.7005 000.8592 0010626 074.8123 087.3523 14.21343722543199 CO-57 1 27848U 03031J 13353.95208350 .00000312 00000-0 16364-3 0 7530 2 27848 098.7096 359.9339 0010607 081.9209 338.1850 14.21052372543045 AO-51 1 28375U 04025K 13352.86024402 .00000270 00000-0 93161-4 0 7278 2 28375 098.2287 301.1566 0083648 176.7006 241.0877 14.41232530497937 CP3 1 31129U 07012N 13354.50608458 .00001058 00000-0 24498-3 0 6281 2 31129 097.9154 336.8254 0099038 206.6795 269.8338 14.54089717354061 CO-65 1 32785U 08021C 13354.12440385 .00002021 00000-0 24575-3 0 8191 2 32785 097.7265 046.1488 0015251 061.3462 025.2752 14.84473088305457 PRISM 1 33493U 09002B 13354.79910328 .00006847 00000-0 76211-3 0 4741 2 33493 098.2329 158.2847 0016683 307.4772 052.4907 14.87362524265648 SOHLA-1 1 33496U 09002E 13354.12572023 .00000701 00000-0 12389-3 0 2272 2 33496 098.1513 109.8879 0007763 094.2520 031.0505 14.70505728263195 TISAT-1 1 36799U 10035E 13354.92653551 .00005078 00000-0 61142-3 0 7383 2 36799 098.0265 080.7380 0014054 176.9867 183.1381 14.84267210186263 STUDSAT 1 36801U 10035G 13353.17376083 .00012109 00000-0 12153-2 0 7352 2 36801 098.0398 084.0930 0011102 160.9312 235.7625 14.91409982186257 ALMASAT-1 1 38078U 12006B 13354.59446105 .00033611 00000-0 75130-3 0 8807 2 38078 069.4766 125.2475 0656232 266.6593 085.9270 14.35423161 95884 XATCOBEO 1 38082U 12006F 13354.89416875 .00155693 75378-5 21826-2 0 7818 2 38082 069.4682 072.3733 0453044 238.1356 117.4967 14.87722654 97356 CUBEBUG-1 1 39153U 13018D 13354.82108618 .00002750 00000-0 39718-3 0 6862 2 39153 098.0599 070.4541 0017424 201.0797 158.9673 14.76939223 35225 ESTCUBE-1 1 39161U 13021C 13354.84840566 .00002285 00000-0 39451-3 0 6599 2 39161 098.1135 072.0155 0009080 237.3167 122.7156 14.69387220 33401 NOAA-10 1 16969U 86073A 13354.56209757 .00000115 00000-0 63841-4 0 6071 2 16969 098.5297 018.1819 0013007 063.3847 098.7324 14.27696695418532 NOAA-11 1 19531U 88089A 13354.19342664 .00000080 00000-0 63489-4 0 6318 2 19531 098.6977 072.7275 0012271 091.8552 268.4027 14.15046385302438 NOAA-12 1 21263U 91032A 13354.54404934 .00000080 00000-0 52246-4 0 923 2 21263 098.6818 018.3012 0014306 042.1933 110.6210 14.25611151175109 MET-3/5 1 21655U 91056A 13354.14212168 -.00000003 00000-0 -40336-4 0 8591 2 21655 082.5569 122.9266 0013409 029.6853 330.5028 13.17052779 74413 MET-2/21 1 22782U 93055A 13354.03285558 .00000107 00000-0 82778-4 0 9270 2 22782 082.5504 315.4509 0023252 050.6774 018.9815 13.83719335 25346 OKEAN-4 1 23317U 94066A 13354.83021382 .00001427 00000-0 16442-3 0 4072 2 23317 082.5385 235.0565 0020062 333.4563 153.2621 14.84914968 36634 NOAA-14 1 23455U 94089A 13354.47990022 -.00000024 00000-0 10529-4 0 5712 2 23455 098.7916 076.0022 0009727 182.2539 305.9150 14.13939098978692 NOAA-15 1 25338U 98030A 13354.54320514 .00000224 00000-0 11413-3 0 05 2 25338 098.7406 343.8887 0009714 309.9976 157.7399 14.25313978811398 RESURS 1 25394U 98043A 13354.02202203 .00000086 00000-0 55032-4 0 5443 2 25394 098.3885 321.1883 0002423 082.7602 318.7936 14.24355581802812 FENGYUN1 1 25730U 99025A 13354.15001486 .00002707 00000-0 15224-2 0 389 2 25730 098.8972 311.6027 0025259 251.4228 201.8772 14.11137878752269 OKEAN-0 1 25860U 99039A 13354.02064233 .00000951 00000-0 14933-3 0 1267 2 25860 098.0182 314.2729 0000811 109.1903 292.7758 14.74862984775745 NOAA-16 1 26536U 00055A 13354.52461890 .00000209 00000-0 13656-3 0 4870 2 26536 099.0174 048.8959 0009839 334.2287 162.6613 14.12960930682887 NOAA-17 1 27453U 02032A 13354.48780973 .00000197 00000-0 10230-3 0 3923 2 27453 098.3113 358.6656 0011087 344.4729 168.6829 14.24662881597246 NOAA-18 1 28654U 05018A 13354.53781687 .00000213 00000-0 14188-3 0 8811 2 28654 099.1265 325.6782 0014952 048.6492 058.1773 14.11914341442354 NOAA-19 1 33591U 09005A 13354.53124135 .00000283 00000-0 18005-3 0 536 2 33591 098.9256 295.3059 0013051 263.2935 220.9002 14.11606849250782 HUBBLE 1 20580U 90037B 13354.80793413 .00003045 00000-0 20086-3 0 3990 2 20580 028.4697 128.8451 0002920 174.6192 308.7656 15.04387704 97825 ISS 1 25544U 98067A 13355.00974940 .00018931 00000-0 33956-3 0 2826 2 25544 051.6507 262.6713 0004654 291.8582 159.3805 15.49936784863685 CO-58 1 28895U 05043F 13354.13019056 .00001190 00000-0 24869-3 0 6502 2 28895 097.8479 200.1782 0016968 211.8254 148.1924 14.61436716434099 FALCON 1 30776U 07006E 13354.81215359 .00010047 00000-0 56143-3 0 7628 2 30776 035.4298 135.2474 0000746 116.2712 001.0085 15.12821011373671 MAST 1 31126U 07012K 13354.76899425 .00000728 00000-0 17025-3 0 9286 2 31126 097.8967 340.2110 0092768 190.0103 295.1311 14.54864925354448 CAPE1 1 31130U 07012P 13354.85977576 .00000963 00000-0 22493-3 0 9337 2 31130 097.9163 336.7613 0099533 206.7063 152.8990 14.53884389353892 COMPASS 1 32787U 08021E 13354.19847022 .00004128 00000-0 47186-3 0 8091 2 32787 097.7280 047.7829 0015353 055.6784 304.5882 14.86478570305582 AAUSAT2 1 32788U 08021F 13354.14475167 .00004921 00000-0 55374-3 0 7935 2 32788 097.7290 048.5224 0014865 055.1928 305.0684 14.87035318305625 DO-64 1 32789U 08021G 13354.07907714 .00008091 00000-0 83298-3 0 8294 2 32789 097.7464 053.4413 0013836 046.1233 015.0967 14.90466313305797 CO-66 1 32791U 08021J 13354.15599495 .00003941 00000-0 46229-3 0 7885 2 32791 097.7279 046.8385 0016020 058.0869 358.6691 14.85426461305472 RS-30 1 32953U 08025A 13354.79124987 .00000010 00000-0 00000 0 0 4827 2 32953 082.5024 312.1434 0018243 182.3807 177.7191 12.43040893253096 METEOR-M 1 35865U 09049A 13354.77303689 .00000049 00000-0 41442-4 0 924 2 35865 098.5776 042.3675 0001695 258.3777 101.7209 14.21902573220983 RS-38 1 35869U 09049E 13354.98427673 .00000146 00000-0 85213-4 0 440 2 35869 098.5719 042.4308 0003842 253.2148 106.8608 14.22166914221049 JUGNU 1 37839U 11058B 13353.15371398 .00000461 00000-0 10446-3 0 5251 2 37839 019.9609 265.9965 0019070 160.4584 313.4796 14.12223044113071 SRMSAT 1 37841U 11058D 13354.18026431 .00000427 00000-0 90317-4 0 5240 2 37841 019.9717 275.5193 0011921 118.2271 028.3314 14.10281071113064 RAX-2 1 37853U 11061D 13354.78971687 .00008010 00000-0 58090-3 0 6759 2 37853 101.7053 295.0618 0227019 211.4851 180.2927 14.86034007116133 AUBIESAT 1 37854U 11061E 13354.45983986 .00008168 00000-0 57799-3 0 6602 2 37854 101.7090 295.8763 0226176 210.4613 270.6785 14.86978035116114 HRBE 1 37855U 11061F 13354.83906802 .00007065 00000-0 50534-3 0 6691 2 37855 101.7091 296.0326 0227574 210.2044 215.8568 14.86513167116158 RS-39 1 38051U 11062C 13354.96817612 .00041139 00000-0 10062-2 0 836 2 38051 051.6345 025.0241 0006950 226.4444 203.1885 15.40363469106480 E-STAR 1 38079U 12006C 13354.69582119 .00102217 49557-5 16674-2 0 6815 2 38079 069.4684 088.1194 0523322 246.7269 268.6814 14.70030985 96906 GOLIAT 1 38085U 12006J 13354.66072869 .00098143 47864-5 16219-2 0 6439 2 38085 069.4733 092.1971 0537499 248.6686 105.6277 14.66789389 96794 HORYU-2 1 38340U 12025D 13354.11813188 .00003180 00000-0 51923-3 0 7066 2 38340 098.2401 303.6668 0013249 028.1362 332.0553 14.71569077 85457 RS-40 1 38736U 12041D 13354.58666401 .00000010 00000-0 00000 0 0 4554 2 38736 082.4812 038.9072 0020162 279.9556 079.9251 12.42874782 63408 PROITERES 1 38756U 12047B 13354.88551933 .00001611 00000-0 24983-3 0 4084 2 38756 098.2398 075.2413 0011482 229.2272 130.7924 14.74532194 68903 RAIKO 1 38852U 98067CN 13218.07382584 .24681979 12625-4 36599-3 0 3409 2 38852 051.6160 184.0336 0004489 261.9162 100.6538 16.48474690 47849 BEESAT-3 1 39134U 13015E 13354.35921514 .00010204 00000-0 78180-3 0 4524 2 39134 064.8776 343.2375 0010284 334.5904 025.4706 15.02216690 36779 BEESAT-2 1 39136U 13015G 13354.50559930 .00009068 00000-0 70056-3 0 4410 2 39136 064.8770 342.8732 0010333 333.6217 026.4370 15.01984008 36793 CAPE-1 1 39380U 13064A 13354.43625435 .00006858 00000-0 30982-3 0 448 2 39380 040.5180 073.4366 0003707 171.2987 188.7852 15.21151990 4630 TRLBLAZER 1 39382U 13064C 13354.48458936 .00044026 00000-0 18272-2 0 441 2 39382 040.5052 072.8811 0001139 123.6153 236.4565 15.23062455 4632 TECHEDST3 1 39415U 98067DD 13354.93609218 .00427797 00000-0 38672-2 0 609 2 39415 051.6468 261.5112 0008077 174.3553 240.5629 15.66174116 4765 ZACUBE-1 1 39417U 13066B 13354.94637029 .00003017 00000-0 41807-3 0 924 2 39417 097.7965 066.6173 0065100 101.1839 259.6639 14.77242610 4371 TRITON-1 1 39427U 13066M 13354.17566237 .00002627 00000-0 45170-3 0 240 2 39427 097.7886 065.2976 0121115 099.6601 261.8267 14.64668570 4181 DELFIN3XT 1 39428U 13066N 13354.15805260 .00004276 00000-0 75828-3 0 268 2 39428 097.7866 065.1646 0132321 099.4338 262.1770 14.62136383 4160 GOMX-1 1 39430U 13066Q 13354.89462312 .00002516 00000-0 48891-3 0 613 2 39430 097.7840 065.5864 0159361 097.0679 264.8621 14.56131650 4266 $50SAT 1 39436U 13066W 13354.74409240 .00019532 00000-0 23035-2 0 230 2 39436 097.7992 066.7344 0031380 115.8257 244.5826 14.84414022 4357 PUCPSAT-1 1 39442U 13066AC 13354.45946638 .00004682 00000-0 55120-3 0 176 2 39442 097.8009 066.4941 0036967 111.1808 249.3326 14.84796203 3093 /EX